ONEWEB-0035, 45143

Orbit data source: Space-Track

ONEWEB-0035, 45143 is a payload satellite owned by One Web (UK) in LEO that was launched on Thu, 06 Feb 2020 UTC via a SOYUZ-2-1B launch vehicle from the Tyuratam Missile And Space Complex (TTMTR). Payload-class satellites include a variety of spacecraft equipped with specific instruments for various scientific and technological missions. These include communications satellites like Starlink; space stations such as the ISS; scientific satellites like the Hubble; Earth observation satellites from companies like Planet Labs, Umbra, and HawkEye 360; GPS; miniature CubeSats for education and research; and military/defense satellites.

Loading next visibility...
Identifier
45143, 2020-008N
Orbit
LEO
Country
Flag of UKUK
Related business
Manufacturer
One Web
Mission
Operational Commercial Communications
Bus & Motor
ARROW, Unknown motor
Mass
148 kg wet, ~140 kg dry
Launch date (UTC)
2020-02-06 (6 years ago)
Launch vehicle
SOYUZ-2-1B
Launch site
Tyuratam Missile And Space Complex (TTMTR)
Object type
Payload
Rocket body
Debris
Shape & HBR
Trap Box + 2 Pan, 6.7 m
Radar Cross Section
3.464 m², Large (>1 m²)

Expand to show TLE details & history
Last TLE update: 7 hours ago

TLE from 7 hours ago
0 ONEWEB-0035
1 45143U 20008N   25292.93922220  .00000330  00000-0  91039-3 0  9997
2 45143  87.8759  84.1834 0001696  95.7664 264.3657 13.10375361276479
Epoch: 2025-10-19T22:32Z
TLE epoch observation values (Epoch: 2025-10-19T22:32:28.798Z)
Latitude
0.00003°
Longitude
77.41471°
Altitude
1,224.722 km
Speed
7.242 km/s
True Right ascension
05h 36m 44s
True Declination
0° 00' 00"
Sunlit
Object was in daylight at epoch
Visualization orbit readout
Latitude
Unknown
Longitude
Unknown
Altitude
Unknown
Speed
Unknown
Apparent Right ascension
Unknown
Apparent Declination
Unknown
Sunlit
N/A
Visualization observer readout
Local Sidereal Time
00:38:16
Azimuth
Unknown
Elevation
Unknown
Doppler factor
Unknown
Orbital elements
Apogee altitude
1,220.116 km
Perigee altitude
1,217.539 km
Semi-major axis
7,596.964 km
Eccentricity
0.00017
Inclination
87.8759°
RAAN
84.1834°
Arg. of periapsis
95.7664°
True anomaly
264.34636°
Mean anomaly
264.3657°
Eccentric anomaly
264.35603°
Mean motion
3.2778 °/min
Orbital period
109.83 mins
BSTAR
0.00091039
Loading maneuver chart data...
Computing Atmospheric mass density...
Loading historical data...
Loading historical data...
Loading historical data...
Loading historical data...
Loading historical data...
Loading historical data...
Loading historical data...

Documentation

Showing up to 5 results
|